Аэропорт
Шымкент (UAII)

 UAII / CIT
ЗЦ Центральная Азия
Шымкент (UAII)
Шымкент (UAII)
 42.36420, 69.47890  / 1385 ft

 UAII 251200Z 31002MPS 270V360 CAVOK 34/05 Q1009 R10/0///70 NOSIG RMK QFE722/0963
 TAF UAII 250500Z 2506/2606 02003G08MPS CAVOK TX36/2510Z TN18/2601Z TEMPO 2506/2508 VRB01MPS TEMPO 2508/2518 05007G12MPS
показать схемы
Название сценария Тип сценария Flight Simulator 9 Flight Simulator X Prepar3D v2 Prepar3D v3 Prepar3D v4 xPlane
Recommended scenery for FS9 бесплатный
Recommended scenery for FSX бесплатный


2019 © VATRUS division (Privacy Policy)